Location: Zapote
(9.9191°N, 84.0597°W)
Time: 10:39:41
(UTC-06:00)

Courier 1B - All Passes

Search period start: 26 February 2021 00:00
Search period end: 08 March 2021 00:00
Orbit: 962 x 1209 km, 28.3° (Epoch: 25 February)

Date Brightness Start Highest point End Pass type
(mag) Time Alt. Az. Time Alt. Az. Time Alt. Az.
26 Feb - 04:59:43 10° SSW 05:05:09 27° SSE 05:10:31 10° E visible
26 Feb - 06:52:37 10° WSW 06:59:06 80° NNW 07:05:40 10° ENE daylight
26 Feb - 08:48:05 10° WNW 08:53:32 28° NNW 08:59:09 10° NE daylight
26 Feb - 10:44:56 10° NW 10:48:58 16° N 10:53:07 10° NNE daylight
26 Feb - 12:39:52 10° NNW 12:44:48 20° NNE 12:49:55 10° NE daylight
26 Feb - 14:33:10 10° NW 14:40:03 42° NNE 14:47:14 10° E daylight
26 Feb - 16:27:01 10° WNW 16:34:34 71° SSW 16:42:25 10° SE daylight
26 Feb - 18:23:19 10° WSW 18:29:02 22° SSW 18:34:47 10° SSE visible
27 Feb - 04:06:47 10° SSW 04:11:21 19° SSE 04:15:50 10° ESE visible
27 Feb - 05:58:52 10° SW 06:05:22 74° SSE 06:11:50 10° ENE daylight
27 Feb - 07:53:45 10° W 07:59:34 35° NNW 08:05:31 10° NE daylight
27 Feb - 09:50:32 10° NW 09:54:43 17° N 09:59:02 10° NNE daylight
27 Feb - 11:46:13 10° NNW 11:50:32 17° N 11:55:00 10° NE daylight
27 Feb - 13:39:37 10° NW 13:45:57 33° NNE 13:52:36 10° E daylight
27 Feb - 15:33:07 10° WNW 15:40:35 88° NNE 15:48:26 10° ESE daylight
27 Feb - 17:28:27 10° W 17:34:59 30° SSW 17:41:39 10° SSE daylight
28 Feb - 03:14:22 10° S 03:17:29 13° SSE 03:20:32 10° ESE visible
28 Feb - 05:05:15 10° SW 05:11:38 52° SSE 05:17:54 10° ENE visible
28 Feb - 06:59:32 10° W 07:05:42 46° NNW 07:11:55 10° NE daylight
28 Feb - 08:56:02 10° WNW 09:00:33 19° NNW 09:05:12 10° NNE daylight
28 Feb - 10:52:25 10° NNW 10:56:15 16° N 11:00:13 10° NE daylight
28 Feb - 12:46:07 10° NW 12:51:49 26° NNE 12:57:48 10° ENE daylight
28 Feb - 14:39:22 10° NW 14:46:36 67° NNE 14:54:15 10° ESE daylight
28 Feb - 16:33:59 10° W 16:40:59 41° SSW 16:48:14 10° SE daylight
28 Feb - 18:33:21 10° SW 18:35:42 11° SSW 18:38:04 10° S visible
01 Mar - 04:11:48 10° SW 04:17:54 37° SSE 04:23:48 10° E visible
01 Mar - 06:05:26 10° WSW 06:11:54 62° NNW 06:18:18 10° NE daylight
01 Mar - 08:01:29 10° WNW 08:06:28 23° NNW 08:11:32 10° NE daylight
01 Mar - 09:58:23 10° NW 10:02:00 15° N 10:05:41 10° NNE daylight
01 Mar - 11:52:38 10° NNW 11:57:40 21° NNE 12:02:54 10° ENE daylight
01 Mar - 13:45:46 10° NW 13:52:37 50° NNE 13:59:54 10° E daylight
01 Mar - 15:39:48 10° WNW 15:47:00 55° SSW 15:54:34 10° SE daylight
01 Mar - 17:36:59 10° WSW 17:41:32 17° SSW 17:46:11 10° S daylight
02 Mar - 03:18:32 10° SSW 03:24:07 27° SSE 03:29:30 10° E visible
02 Mar - 05:11:29 10° WSW 05:18:09 85° NNW 05:24:37 10° ENE visible
02 Mar - 07:07:00 10° WNW 07:12:29 28° NNW 07:17:59 10° NE daylight
02 Mar - 09:04:04 10° NW 09:07:45 15° N 09:11:30 10° NNE daylight
02 Mar - 10:59:08 10° NNW 11:03:29 18° N 11:07:59 10° NE daylight
02 Mar - 12:52:15 10° NW 12:58:38 38° NNE 13:05:23 10° E daylight
02 Mar - 14:45:51 10° WNW 14:53:04 75° SSW 15:00:43 10° SE daylight
02 Mar - 16:41:47 10° W 16:47:28 23° SSW 16:53:20 10° SSE daylight
03 Mar - 02:25:31 10° SSW 02:30:15 19° SSE 02:34:48 10° ESE visible
03 Mar - 04:17:39 10° SW 04:24:23 70° SSE 04:30:52 10° ENE visible
03 Mar - 06:12:36 10° W 06:18:34 36° NNW 06:24:27 10° NE daylight
03 Mar - 08:09:33 10° NW 08:13:35 17° N 08:17:38 10° NNE daylight
03 Mar - 10:05:30 10° NNW 10:09:17 16° N 10:13:09 10° NE daylight
03 Mar - 11:58:47 10° NW 12:04:37 30° NNE 12:10:44 10° E daylight
03 Mar - 13:52:05 10° WNW 13:59:08 83° NNE 14:06:41 10° ESE daylight
03 Mar - 15:47:07 10° W 15:53:27 31° SSW 16:00:05 10° SSE daylight
04 Mar - 01:33:00 10° S 01:36:17 14° SSE 01:39:30 10° ESE night (unlit)
04 Mar - 03:23:58 10° SW 03:30:38 50° SSE 03:36:57 10° ENE visible
04 Mar - 05:18:18 10° W 05:24:43 49° NNW 05:30:56 10° NE visible
04 Mar - 07:14:55 10° WNW 07:19:27 20° NNW 07:24:00 10° NNE daylight
04 Mar - 09:11:39 10° NNW 09:15:03 14° N 09:18:31 10° NE daylight
04 Mar - 11:05:21 10° NW 11:10:33 24° NNE 11:15:58 10° ENE daylight
04 Mar - 12:58:26 10° NW 13:05:14 62° NNE 13:12:29 10° ESE daylight
04 Mar - 14:52:48 10° W 14:59:30 42° SSW 15:06:35 10° SE daylight
04 Mar - 16:51:32 10° SW 16:54:10 12° SSW 16:56:49 10° S daylight
05 Mar - 02:30:26 10° SW 02:36:50 36° SSE 02:42:53 10° E visible
05 Mar - 04:24:08 10° WSW 04:30:54 67° NNW 04:37:23 10° NE visible
05 Mar - 06:20:17 10° WNW 06:25:25 24° NNW 06:30:30 10° NE daylight
05 Mar - 08:17:29 10° NW 08:20:50 14° N 08:24:13 10° NNE daylight
05 Mar - 10:11:55 10° NNW 10:16:28 19° NNE 10:21:07 10° ENE daylight
05 Mar - 12:04:55 10° NW 12:11:20 46° NNE 12:18:08 10° E daylight
05 Mar - 13:58:45 10° WNW 14:05:35 58° SSW 14:12:53 10° SE daylight
05 Mar - 15:55:34 10° WSW 16:00:03 17° SSW 16:04:40 10° S daylight
06 Mar - 01:37:06 10° SSW 01:42:57 26° SSE 01:48:32 10° E visible
06 Mar - 03:30:06 10° WSW 03:37:07 90° NNW 03:43:44 10° ENE visible
06 Mar - 05:25:41 10° W 05:31:26 30° NNW 05:37:02 10° NE visible
06 Mar - 07:23:00 10° NW 07:26:38 15° N 07:30:16 10° NNE daylight
06 Mar - 09:18:23 10° NNW 09:22:19 16° N 09:26:18 10° NE daylight
06 Mar - 11:11:27 10° NW 11:17:24 35° NNE 11:23:39 10° E daylight
06 Mar - 13:04:54 10° WNW 13:11:44 78° SSW 13:19:01 10° ESE daylight
06 Mar - 15:00:33 10° W 15:06:01 23° SSW 15:11:43 10° SSE daylight
07 Mar - 00:44:01 10° SSW 00:48:59 19° SSE 00:53:47 10° ESE night (unlit)
07 Mar - 02:36:12 10° SW 02:43:19 67° SSE 02:49:58 10° ENE visible
07 Mar - 04:31:11 10° W 04:37:31 39° NNW 04:43:35 10° NE visible
07 Mar - 06:28:18 10° NW 06:32:29 17° NNW 06:36:37 10° NNE daylight
07 Mar - 08:24:39 10° NNW 08:28:08 15° N 08:31:37 10° NE daylight
07 Mar - 10:18:01 10° NW 10:23:27 27° NNE 10:29:03 10° ENE daylight
07 Mar - 12:11:12 10° WNW 12:17:53 78° NNE 12:25:00 10° ESE daylight
07 Mar - 14:06:01 10° W 14:12:03 32° SSW 14:18:28 10° SSE daylight
07 Mar - 23:51:25 10° S 23:54:57 14° SSE 23:58:24 10° ESE night (unlit)
